Time,TemperatureF,DewpointF,PressureIn,WindDirection,WindDirectionDegrees,WindSpeedMPH,WindSpeedGustMPH,Humidity,HourlyPrecipIn,Conditions,Clouds,dailyrainin,SoftwareType,DateUTC
2013-10-30 00:01:00,46.2,41.4,30.26,East,82,0.0,0.0,83,0.00,,OVC OVC///CB,0.01,WUHU216DAVISVP2,2013-10-30 04:01:00,
2013-10-30 00:02:00,46.2,41.4,30.26,East,82,0.0,0.0,83,0.00,,OVC OVC///CB,0.01,WUHU216DAVISVP2,2013-10-30 04:02:00,
2013-10-30 00:07:00,46.2,41.4,30.26,East,82,0.0,0.0,83,0.00,,OVC OVC///CB,0.00,WUHU216DAVISVP2,2013-10-30 04:07:00,
2013-10-30 00:12:00,46.1,41.3,30.26,East,82,0.0,0.0,83,0.00,,OVC OVC///CB,0.00,WUHU216DAVISVP2,2013-10-30 04:12:00,
2013-10-30 00:17:00,46.1,41.3,30.25,East,82,0.0,0.0,83,0.00,,OVC OVC///CB,0.00,WUHU216DAVISVP2,2013-10-30 04:17:00,
2013-10-30 00:22:00,46.1,41.3,30.25,East,82,0.0,0.0,83,0.00,,OVC OVC///CB,0.00,WUHU216DAVISVP2,2013-10-30 04:22:00,
2013-10-30 00:27:00,46.0,41.3,30.25,East,82,0.0,0.0,83,0.00,,OVC OVC///CB,0.00,WUHU216DAVISVP2,2013-10-30 04:27:00,
2013-10-30 00:32:00,46.0,41.3,30.25,East,82,0.0,0.0,83,0.00,,OVC OVC///CB,0.00,WUHU216DAVISVP2,2013-10-30 04:32:00,
2013-10-30 00:37:00,46.2,41.1,30.25,East,82,0.0,0.0,82,0.00,,OVC OVC///CB,0.00,WUHU216DAVISVP2,2013-10-30 04:37:00,
2013-10-30 00:42:00,46.1,41.0,30.25,East,82,0.0,0.0,82,0.00,,OVC OVC///CB,0.00,WUHU216DAVISVP2,2013-10-30 04:42:00,
2013-10-30 00:47:00,46.0,40.9,30.25,East,82,0.0,0.0,82,0.00,,OVC OVC///CB,0.00,WUHU216DAVISVP2,2013-10-30 04:47:00,
2013-10-30 00:52:00,46.0,41.3,30.24,East,82,0.0,0.0,83,0.00,,OVC OVC///CB,0.00,WUHU216DAVISVP2,2013-10-30 04:52:00,
2013-10-30 00:57:00,46.2,41.4,30.24,East,82,0.0,0.0,83,0.00,,OVC OVC///CB,0.00,WUHU216DAVISVP2,2013-10-30 04:57:00,
2013-10-30 01:02:00,46.2,41.4,30.24,East,82,0.0,0.0,83,0.00,,OVC OVC///CB,0.00,WUHU216DAVISVP2,2013-10-30 05:02:00,
2013-10-30 01:07:00,46.2,41.4,30.24,East,82,0.0,0.0,83,0.00,,OVC OVC///CB,0.00,WUHU216DAVISVP2,2013-10-30 05:07:00,
2013-10-30 01:12:00,46.3,41.5,30.24,East,82,0.0,0.0,83,0.00,,OVC OVC///CB,0.00,WUHU216DAVISVP2,2013-10-30 05:12:00,
2013-10-30 01:17:00,46.5,41.4,30.24,East,82,0.0,0.0,82,0.00,,OVC OVC///CB,0.00,WUHU216DAVISVP2,2013-10-30 05:17:00,
2013-10-30 01:22:00,46.5,41.1,30.24,East,82,0.0,0.0,81,0.00,,OVC OVC///CB,0.00,WUHU216DAVISVP2,2013-10-30 05:22:00,
2013-10-30 01:27:00,46.6,41.5,30.23,East,82,0.0,0.0,82,0.00,,OVC OVC///CB,0.00,WUHU216DAVISVP2,2013-10-30 05:27:00,
2013-10-30 01:32:00,46.6,41.5,30.23,SSE,167,0.0,0.0,82,0.00,,OVC OVC///CB,0.00,WUHU216DAVISVP2,2013-10-30 05:32:00,
2013-10-30 01:37:00,46.9,41.8,30.23,SSE,167,0.0,1.0,82,0.00,,OVC OVC///CB,0.00,WUHU216DAVISVP2,2013-10-30 05:37:00,
2013-10-30 01:42:00,46.9,41.8,30.23,SSE,167,0.0,1.0,82,0.00,,OVC OVC///CB,0.00,WUHU216DAVISVP2,2013-10-30 05:42:00,
2013-10-30 01:47:00,47.2,41.8,30.23,SSE,167,0.0,1.0,81,0.00,,OVC OVC///CB,0.00,WUHU216DAVISVP2,2013-10-30 05:47:00,
2013-10-30 01:52:00,47.4,42.0,30.23,SSE,167,0.0,1.0,81,0.00,,OVC OVC///CB,0.00,WUHU216DAVISVP2,2013-10-30 05:52:00,
2013-10-30 01:57:00,47.4,41.7,30.23,SSE,167,0.0,1.0,80,0.00,,OVC OVC///CB,0.00,WUHU216DAVISVP2,2013-10-30 05:57:00,
2013-10-30 02:02:00,47.3,41.9,30.23,SSE,167,0.0,0.0,81,0.00,,OVC OVC///CB,0.00,WUHU216DAVISVP2,2013-10-30 06:02:00,
2013-10-30 02:07:00,47.2,41.8,30.23,SSE,167,0.0,0.0,81,0.00,,OVC OVC///CB,0.00,WUHU216DAVISVP2,2013-10-30 06:07:00,
2013-10-30 02:12:00,47.0,41.9,30.22,SSE,167,0.0,0.0,82,0.00,,OVC OVC///CB,0.00,WUHU216DAVISVP2,2013-10-30 06:12:00,
2013-10-30 02:17:00,46.9,42.1,30.22,South,176,0.0,0.0,83,0.00,,OVC OVC///CB,0.00,WUHU216DAVISVP2,2013-10-30 06:17:00,
2013-10-30 02:22:00,47.2,41.8,30.22,SSW,207,0.0,1.0,81,0.00,,OVC OVC///CB,0.00,WUHU216DAVISVP2,2013-10-30 06:22:00,
2013-10-30 02:27:00,47.7,42.0,30.22,SSW,201,0.0,2.0,80,0.00,,OVC OVC///CB,0.00,WUHU216DAVISVP2,2013-10-30 06:27:00,
2013-10-30 02:32:00,47.9,41.9,30.22,SSW,201,0.0,2.0,79,0.00,,OVC OVC///CB,0.00,WUHU216DAVISVP2,2013-10-30 06:32:00,
2013-10-30 02:37:00,47.8,41.8,30.21,SSW,201,0.0,2.0,79,0.00,,OVC OVC///CB,0.00,WUHU216DAVISVP2,2013-10-30 06:37:00,
2013-10-30 02:42:00,47.7,42.0,30.21,SSW,201,0.0,1.0,80,0.00,,OVC OVC///CB,0.00,WUHU216DAVISVP2,2013-10-30 06:42:00,
2013-10-30 02:47:00,47.5,41.8,30.21,SSW,201,0.0,0.0,80,0.00,,OVC OVC///CB,0.00,WUHU216DAVISVP2,2013-10-30 06:47:00,
2013-10-30 02:52:00,47.6,41.6,30.21,SSW,203,1.0,1.0,79,0.00,,OVC OVC///CB,0.00,WUHU216DAVISVP2,2013-10-30 06:52:00,
2013-10-30 02:57:00,47.8,41.8,30.21,SSW,203,0.0,2.0,79,0.00,,OVC OVC///CB,0.00,WUHU216DAVISVP2,2013-10-30 06:57:00,
2013-10-30 03:02:00,47.6,41.9,30.21,SSW,203,0.0,2.0,80,0.00,,OVC OVC///CB,0.00,WUHU216DAVISVP2,2013-10-30 07:02:00,
2013-10-30 03:07:00,47.7,42.0,30.21,SSW,203,0.0,2.0,80,0.00,,OVC OVC///CB,0.00,WUHU216DAVISVP2,2013-10-30 07:07:00,
2013-10-30 03:12:00,47.6,41.6,30.21,SSW,203,0.0,1.0,79,0.00,,OVC OVC///CB,0.00,WUHU216DAVISVP2,2013-10-30 07:12:00,
2013-10-30 03:17:00,47.6,41.9,30.21,SSW,203,0.0,0.0,80,0.00,,OVC OVC///CB,0.00,WUHU216DAVISVP2,2013-10-30 07:17:00,
2013-10-30 03:22:00,47.5,41.8,30.20,SSW,203,0.0,0.0,80,0.00,,OVC OVC///CB,0.00,WUHU216DAVISVP2,2013-10-30 07:22:00,
2013-10-30 03:27:00,47.4,41.4,30.20,SSW,203,0.0,0.0,79,0.00,,OVC OVC///CB,0.00,WUHU216DAVISVP2,2013-10-30 07:27:00,
2013-10-30 03:32:00,47.5,41.5,30.20,SW,222,0.0,0.0,79,0.00,,OVC OVC///CB,0.00,WUHU216DAVISVP2,2013-10-30 07:32:00,
2013-10-30 03:37:00,47.6,41.6,30.20,South,187,0.0,1.0,79,0.00,,OVC OVC///CB,0.00,WUHU216DAVISVP2,2013-10-30 07:37:00,
2013-10-30 03:42:00,47.6,41.6,30.20,South,187,0.0,1.0,79,0.00,,OVC OVC///CB,0.00,WUHU216DAVISVP2,2013-10-30 07:42:00,
2013-10-30 03:47:00,47.3,41.3,30.19,South,187,0.0,1.0,79,0.00,,OVC OVC///CB,0.00,WUHU216DAVISVP2,2013-10-30 07:47:00,
2013-10-30 03:52:00,47.1,41.4,30.19,South,187,0.0,1.0,80,0.00,,OVC OVC///CB,0.00,WUHU216DAVISVP2,2013-10-30 07:52:00,
2013-10-30 03:57:00,47.0,41.6,30.19,South,187,0.0,0.0,81,0.00,,OVC OVC///CB,0.00,WUHU216DAVISVP2,2013-10-30 07:57:00,
2013-10-30 04:02:00,46.9,41.5,30.19,South,187,0.0,0.0,81,0.00,,OVC OVC///CB,0.00,WUHU216DAVISVP2,2013-10-30 08:02:00,
2013-10-30 04:07:00,47.0,41.6,30.19,South,187,0.0,0.0,81,0.00,,OVC OVC///CB,0.00,WUHU216DAVISVP2,2013-10-30 08:07:00,
2013-10-30 04:12:00,47.1,41.4,30.19,South,186,0.0,0.0,80,0.00,,OVC OVC///CB,0.00,WUHU216DAVISVP2,2013-10-30 08:12:00,
2013-10-30 04:17:00,47.1,41.4,30.19,South,187,0.0,0.0,80,0.00,,OVC OVC///CB,0.00,WUHU216DAVISVP2,2013-10-30 08:17:00,
2013-10-30 04:22:00,47.0,41.3,30.19,South,187,0.0,0.0,80,0.00,,OVC OVC///CB,0.00,WUHU216DAVISVP2,2013-10-30 08:22:00,
2013-10-30 04:27:00,46.9,41.2,30.19,South,187,0.0,0.0,80,0.00,,OVC OVC///CB,0.00,WUHU216DAVISVP2,2013-10-30 08:27:00,
2013-10-30 04:32:00,46.9,41.5,30.19,South,187,0.0,0.0,81,0.00,,OVC OVC///CB,0.00,WUHU216DAVISVP2,2013-10-30 08:32:00,
2013-10-30 04:37:00,46.8,41.7,30.18,South,187,0.0,0.0,82,0.00,,OVC OVC///CB,0.00,WUHU216DAVISVP2,2013-10-30 08:37:00,
2013-10-30 04:42:00,46.6,41.2,30.18,South,187,0.0,0.0,81,0.00,,OVC OVC///CB,0.00,WUHU216DAVISVP2,2013-10-30 08:42:00,
2013-10-30 04:47:00,46.6,41.5,30.19,South,186,0.0,0.0,82,0.00,,OVC OVC///CB,0.00,WUHU216DAVISVP2,2013-10-30 08:47:00,
2013-10-30 04:52:00,46.7,41.6,30.19,South,187,0.0,0.0,82,0.00,,OVC OVC///CB,0.00,WUHU216DAVISVP2,2013-10-30 08:52:00,
2013-10-30 04:57:00,46.6,41.8,30.18,South,186,0.0,0.0,83,0.00,,OVC OVC///CB,0.00,WUHU216DAVISVP2,2013-10-30 08:57:00,
2013-10-30 05:02:00,46.5,41.7,30.19,South,187,0.0,0.0,83,0.00,,OVC OVC///CB,0.00,WUHU216DAVISVP2,2013-10-30 09:02:00,
2013-10-30 05:07:00,46.4,41.6,30.19,South,187,0.0,0.0,83,0.00,,OVC OVC///CB,0.00,WUHU216DAVISVP2,2013-10-30 09:07:00,
2013-10-30 05:12:00,46.2,41.7,30.19,South,187,0.0,0.0,84,0.00,,OVC OVC///CB,0.00,WUHU216DAVISVP2,2013-10-30 09:12:00,
2013-10-30 05:17:00,45.9,41.8,30.19,South,187,0.0,0.0,85,0.00,,OVC OVC///CB,0.00,WUHU216DAVISVP2,2013-10-30 09:17:00,
2013-10-30 05:22:00,45.5,41.7,30.19,South,187,0.0,0.0,86,0.00,,OVC OVC///CB,0.00,WUHU216DAVISVP2,2013-10-30 09:22:00,
2013-10-30 05:27:00,45.2,41.7,30.19,South,187,0.0,0.0,87,0.00,,OVC OVC///CB,0.00,WUHU216DAVISVP2,2013-10-30 09:27:00,
2013-10-30 05:32:00,44.8,41.3,30.19,South,187,0.0,0.0,87,0.00,,OVC OVC///CB,0.00,WUHU216DAVISVP2,2013-10-30 09:32:00,
2013-10-30 05:37:00,44.4,41.2,30.19,South,187,0.0,0.0,88,0.00,,OVC OVC///CB,0.00,WUHU216DAVISVP2,2013-10-30 09:37:00,
2013-10-30 05:42:00,44.1,41.1,30.19,South,187,0.0,0.0,89,0.00,,OVC OVC///CB,0.00,WUHU216DAVISVP2,2013-10-30 09:42:00,
2013-10-30 05:47:00,43.8,41.1,30.19,South,187,0.0,0.0,90,0.00,,OVC OVC///CB,0.00,WUHU216DAVISVP2,2013-10-30 09:47:00,
2013-10-30 05:52:00,43.4,40.7,30.19,South,187,0.0,0.0,90,0.00,,OVC OVC///CB,0.00,WUHU216DAVISVP2,2013-10-30 09:52:00,
2013-10-30 05:57:00,42.9,40.2,30.19,South,187,0.0,0.0,90,0.00,,OVC OVC///CB,0.00,WUHU216DAVISVP2,2013-10-30 09:57:00,
2013-10-30 06:02:00,42.5,40.1,30.19,South,186,0.0,0.0,91,0.00,,OVC OVC///CB,0.00,WUHU216DAVISVP2,2013-10-30 10:02:00,
2013-10-30 06:07:00,42.4,40.3,30.20,South,187,0.0,0.0,92,0.00,,OVC OVC///CB,0.00,WUHU216DAVISVP2,2013-10-30 10:07:00,
2013-10-30 06:12:00,42.2,40.4,30.20,South,187,0.0,0.0,93,0.00,,OVC OVC///CB,0.00,WUHU216DAVISVP2,2013-10-30 10:12:00,
2013-10-30 06:17:00,42.0,40.2,30.20,South,187,0.0,0.0,93,0.00,,OVC OVC///CB,0.00,WUHU216DAVISVP2,2013-10-30 10:17:00,
2013-10-30 06:22:00,41.9,40.1,30.20,South,187,0.0,0.0,93,0.00,,OVC OVC///CB,0.00,WUHU216DAVISVP2,2013-10-30 10:22:00,
2013-10-30 06:27:00,41.7,39.9,30.20,South,187,0.0,0.0,93,0.00,,OVC OVC///CB,0.00,WUHU216DAVISVP2,2013-10-30 10:27:00,
2013-10-30 06:32:00,41.6,39.8,30.20,South,187,0.0,0.0,93,0.00,,OVC OVC///CB,0.00,WUHU216DAVISVP2,2013-10-30 10:32:00,
2013-10-30 06:37:00,41.3,39.5,30.20,South,187,0.0,0.0,93,0.00,,OVC OVC///CB,0.00,WUHU216DAVISVP2,2013-10-30 10:37:00,
2013-10-30 06:42:00,41.0,39.2,30.20,South,187,0.0,0.0,93,0.00,,OVC OVC///CB,0.00,WUHU216DAVISVP2,2013-10-30 10:42:00,
2013-10-30 06:47:00,40.6,38.8,30.20,South,187,0.0,0.0,93,0.00,,OVC OVC///CB,0.00,WUHU216DAVISVP2,2013-10-30 10:47:00,
2013-10-30 06:52:00,40.5,39.2,30.20,South,187,0.0,0.0,95,0.00,,OVC OVC///CB,0.00,WUHU216DAVISVP2,2013-10-30 10:52:00,
2013-10-30 06:57:00,40.3,39.0,30.20,South,187,0.0,0.0,95,0.00,,OVC OVC///CB,0.00,WUHU216DAVISVP2,2013-10-30 10:57:00,
2013-10-30 07:02:00,40.3,39.3,30.20,South,187,0.0,0.0,96,0.00,,OVC OVC///CB,0.00,WUHU216DAVISVP2,2013-10-30 11:02:00,
2013-10-30 07:07:00,40.5,39.5,30.20,South,187,0.0,0.0,96,0.00,,OVC OVC///CB,0.00,WUHU216DAVISVP2,2013-10-30 11:07:00,
2013-10-30 07:12:00,40.6,39.6,30.20,South,187,0.0,0.0,96,0.00,,OVC OVC///CB,0.00,WUHU216DAVISVP2,2013-10-30 11:12:00,
2013-10-30 07:17:00,40.6,39.3,30.20,South,187,0.0,0.0,95,0.00,,OVC OVC///CB,0.00,WUHU216DAVISVP2,2013-10-30 11:17:00,
2013-10-30 07:22:00,40.4,39.1,30.20,South,187,0.0,0.0,95,0.00,,OVC OVC///CB,0.00,WUHU216DAVISVP2,2013-10-30 11:22:00,
2013-10-30 07:27:00,40.1,38.8,30.20,South,187,0.0,0.0,95,0.00,,OVC OVC///CB,0.00,WUHU216DAVISVP2,2013-10-30 11:27:00,
2013-10-30 07:32:00,40.1,39.1,30.20,South,186,0.0,0.0,96,0.00,,OVC OVC///CB,0.00,WUHU216DAVISVP2,2013-10-30 11:32:00,
2013-10-30 07:37:00,39.9,38.9,30.20,South,187,0.0,0.0,96,0.00,,OVC OVC///CB,0.00,WUHU216DAVISVP2,2013-10-30 11:37:00,
2013-10-30 07:42:00,39.9,38.9,30.20,South,187,0.0,0.0,96,0.00,,OVC OVC///CB,0.00,WUHU216DAVISVP2,2013-10-30 11:42:00,
2013-10-30 07:47:00,40.0,39.0,30.20,South,187,0.0,0.0,96,0.00,,OVC OVC///CB,0.00,WUHU216DAVISVP2,2013-10-30 11:47:00,
2013-10-30 07:52:00,39.7,38.7,30.20,South,187,0.0,0.0,96,0.00,,OVC OVC///CB,0.00,WUHU216DAVISVP2,2013-10-30 11:52:00,
2013-10-30 07:57:00,39.7,38.7,30.20,South,187,0.0,0.0,96,0.00,,OVC OVC///CB,0.00,WUHU216DAVISVP2,2013-10-30 11:57:00,
2013-10-30 08:02:00,39.7,38.7,30.20,South,187,0.0,0.0,96,0.00,,OVC OVC///CB,0.00,WUHU216DAVISVP2,2013-10-30 12:02:00,
2013-10-30 08:07:00,39.8,39.1,30.21,South,187,0.0,0.0,97,0.00,,OVC OVC///CB,0.00,WUHU216DAVISVP2,2013-10-30 12:07:00,
2013-10-30 08:12:00,40.1,39.4,30.20,South,187,0.0,0.0,97,0.00,,OVC OVC///CB,0.00,WUHU216DAVISVP2,2013-10-30 12:12:00,
2013-10-30 08:17:00,40.4,39.7,30.21,South,187,0.0,0.0,97,0.00,,OVC OVC///CB,0.00,WUHU216DAVISVP2,2013-10-30 12:17:00,
2013-10-30 08:22:00,40.7,40.0,30.20,South,187,0.0,0.0,97,0.00,,OVC OVC///CB,0.00,WUHU216DAVISVP2,2013-10-30 12:22:00,
2013-10-30 08:27:00,41.1,40.4,30.21,South,186,0.0,0.0,97,0.00,,OVC OVC///CB,0.00,WUHU216DAVISVP2,2013-10-30 12:27:00,
2013-10-30 08:32:00,41.6,40.9,30.21,South,187,0.0,0.0,97,0.00,,OVC OVC///CB,0.00,WUHU216DAVISVP2,2013-10-30 12:32:00,
2013-10-30 08:37:00,42.2,41.2,30.21,South,187,0.0,0.0,96,0.00,,OVC OVC///CB,0.00,WUHU216DAVISVP2,2013-10-30 12:37:00,
2013-10-30 08:42:00,42.6,41.6,30.21,South,187,0.0,0.0,96,0.00,,OVC OVC///CB,0.00,WUHU216DAVISVP2,2013-10-30 12:42:00,
2013-10-30 08:47:00,42.9,41.9,30.21,South,186,0.0,0.0,96,0.00,,OVC OVC///CB,0.00,WUHU216DAVISVP2,2013-10-30 12:47:00,
2013-10-30 08:52:00,43.3,42.0,30.21,South,187,0.0,0.0,95,0.00,,OVC OVC///CB,0.00,WUHU216DAVISVP2,2013-10-30 12:52:00,
2013-10-30 08:57:00,43.8,42.5,30.21,South,186,0.0,0.0,95,0.00,,OVC OVC///CB,0.00,WUHU216DAVISVP2,2013-10-30 12:57:00,
2013-10-30 09:02:00,44.3,42.7,30.21,South,187,0.0,0.0,94,0.00,,OVC OVC///CB,0.00,WUHU216DAVISVP2,2013-10-30 13:02:00,
2013-10-30 09:07:00,44.7,42.9,30.21,South,187,0.0,0.0,93,0.00,,OVC OVC///CB,0.00,WUHU216DAVISVP2,2013-10-30 13:07:00,
2013-10-30 09:12:00,45.1,43.3,30.21,South,187,0.0,0.0,93,0.00,,OVC OVC///CB,0.00,WUHU216DAVISVP2,2013-10-30 13:12:00,
2013-10-30 09:17:00,45.5,43.4,30.21,South,187,0.0,0.0,92,0.00,,OVC OVC///CB,0.00,WUHU216DAVISVP2,2013-10-30 13:17:00,
2013-10-30 09:22:00,46.0,43.3,30.21,South,187,0.0,1.0,90,0.00,,OVC OVC///CB,0.00,WUHU216DAVISVP2,2013-10-30 13:22:00,
2013-10-30 09:27:00,46.5,43.2,30.22,South,187,0.0,1.0,88,0.00,,OVC OVC///CB,0.00,WUHU216DAVISVP2,2013-10-30 13:27:00,
2013-10-30 09:32:00,47.0,43.4,30.22,South,187,0.0,1.0,87,0.00,,OVC OVC///CB,0.00,WUHU216DAVISVP2,2013-10-30 13:32:00,
2013-10-30 09:37:00,47.5,43.6,30.22,South,187,0.0,1.0,86,0.00,,OVC OVC///CB,0.00,WUHU216DAVISVP2,2013-10-30 13:37:00,
2013-10-30 09:42:00,47.9,43.7,30.22,South,187,0.0,0.0,85,0.00,,OVC OVC///CB,0.00,WUHU216DAVISVP2,2013-10-30 13:42:00,
2013-10-30 09:47:00,48.4,43.6,30.22,South,187,0.0,0.0,83,0.00,,OVC OVC///CB,0.00,WUHU216DAVISVP2,2013-10-30 13:47:00,
2013-10-30 09:52:00,48.9,43.2,30.22,SSW,195,0.0,0.0,80,0.00,,OVC OVC///CB,0.00,WUHU216DAVISVP2,2013-10-30 13:52:00,
2013-10-30 09:57:00,49.3,43.2,30.22,SSW,194,0.0,0.0,79,0.00,,OVC OVC///CB,0.00,WUHU216DAVISVP2,2013-10-30 13:57:00,
2013-10-30 10:02:00,49.9,43.8,30.22,SSW,195,0.0,1.0,79,0.00,,OVC OVC///CB,0.00,WUHU216DAVISVP2,2013-10-30 14:02:00,
2013-10-30 10:07:00,50.5,44.1,30.23,SSW,195,0.0,1.0,78,0.00,,OVC OVC///CB,0.00,WUHU216DAVISVP2,2013-10-30 14:07:00,
2013-10-30 10:12:00,51.1,44.0,30.23,SSW,194,0.0,1.0,76,0.00,,OVC OVC///CB,0.00,WUHU216DAVISVP2,2013-10-30 14:12:00,
2013-10-30 10:17:00,51.6,44.1,30.22,SSW,194,0.0,1.0,75,0.00,,OVC OVC///CB,0.00,WUHU216DAVISVP2,2013-10-30 14:17:00,
2013-10-30 10:22:00,51.6,44.1,30.22,East,101,0.0,1.0,75,0.00,,OVC OVC///CB,0.00,WUHU216DAVISVP2,2013-10-30 14:22:00,
2013-10-30 10:27:00,51.7,44.6,30.23,East,101,0.0,1.0,76,0.00,,OVC OVC///CB,0.00,WUHU216DAVISVP2,2013-10-30 14:27:00,
2013-10-30 10:32:00,52.1,44.6,30.23,East,101,0.0,1.0,75,0.00,,OVC OVC///CB,0.00,WUHU216DAVISVP2,2013-10-30 14:32:00,
2013-10-30 10:37:00,52.6,44.4,30.23,ESE,122,0.0,1.0,73,0.00,,OVC OVC///CB,0.00,WUHU216DAVISVP2,2013-10-30 14:37:00,
2013-10-30 10:42:00,53.0,44.5,30.22,SSE,165,0.0,0.0,72,0.00,,OVC OVC///CB,0.00,WUHU216DAVISVP2,2013-10-30 14:42:00,
2013-10-30 10:47:00,53.1,44.2,30.22,East,99,0.0,2.0,71,0.00,,OVC OVC///CB,0.00,WUHU216DAVISVP2,2013-10-30 14:47:00,
2013-10-30 10:52:00,53.4,44.5,30.22,SW,227,0.0,2.0,71,0.00,,OVC OVC///CB,0.00,WUHU216DAVISVP2,2013-10-30 14:52:00,
2013-10-30 10:57:00,54.0,44.7,30.22,SE,132,0.0,2.0,70,0.00,,OVC OVC///CB,0.00,WUHU216DAVISVP2,2013-10-30 14:57:00,
2013-10-30 11:02:00,54.5,45.2,30.22,ESE,123,1.0,2.0,70,0.00,,OVC OVC///CB,0.00,WUHU216DAVISVP2,2013-10-30 15:02:00,
2013-10-30 11:07:00,54.6,44.5,30.22,ESE,109,0.0,2.0,68,0.00,,OVC OVC///CB,0.00,WUHU216DAVISVP2,2013-10-30 15:07:00,
2013-10-30 11:12:00,54.7,45.0,30.22,ESE,104,0.0,2.0,69,0.00,,OVC OVC///CB,0.00,WUHU216DAVISVP2,2013-10-30 15:12:00,
2013-10-30 11:17:00,55.1,45.4,30.22,ENE,64,2.0,2.0,69,0.00,,OVC OVC///CB,0.00,WUHU216DAVISVP2,2013-10-30 15:17:00,
2013-10-30 11:22:00,55.7,46.0,30.22,ESE,115,0.0,2.0,69,0.00,,OVC OVC///CB,0.00,WUHU216DAVISVP2,2013-10-30 15:22:00,
2013-10-30 11:27:00,56.3,46.5,30.21,ESE,117,0.0,2.0,69,0.00,,OVC OVC///CB,0.00,WUHU216DAVISVP2,2013-10-30 15:27:00,
2013-10-30 11:32:00,56.9,47.1,30.21,SSE,150,0.0,2.0,69,0.00,,OVC OVC///CB,0.00,WUHU216DAVISVP2,2013-10-30 15:32:00,
2013-10-30 11:37:00,57.7,47.5,30.21,West,263,0.0,2.0,68,0.00,,OVC OVC///CB,0.00,WUHU216DAVISVP2,2013-10-30 15:37:00,
2013-10-30 11:42:00,58.2,48.4,30.20,East,101,0.0,2.0,69,0.00,,OVC OVC///CB,0.00,WUHU216DAVISVP2,2013-10-30 15:42:00,
2013-10-30 11:47:00,58.6,49.1,30.20,ESE,117,0.0,0.0,70,0.00,,OVC OVC///CB,0.00,WUHU216DAVISVP2,2013-10-30 15:47:00,
2013-10-30 11:52:00,59.0,49.1,30.20,East,89,1.0,3.0,69,0.00,,OVC OVC///CB,0.00,WUHU216DAVISVP2,2013-10-30 15:52:00,
2013-10-30 11:57:00,59.1,50.0,30.20,NE,43,0.0,3.0,71,0.00,,OVC OVC///CB,0.00,WUHU216DAVISVP2,2013-10-30 15:57:00,
2013-10-30 12:02:00,59.0,51.0,30.20,ESE,117,2.0,3.0,74,0.00,,OVC OVC///CB,0.00,WUHU216DAVISVP2,2013-10-30 16:02:00,
2013-10-30 12:07:00,58.7,51.0,30.20,ESE,113,2.0,4.0,75,0.00,,OVC OVC///CB,0.00,WUHU216DAVISVP2,2013-10-30 16:07:00,
2013-10-30 12:12:00,58.9,51.2,30.20,SE,124,0.0,4.0,75,0.00,,OVC OVC///CB,0.00,WUHU216DAVISVP2,2013-10-30 16:12:00,
2013-10-30 12:17:00,59.6,51.6,30.20,WNW,288,0.0,4.0,74,0.00,,OVC OVC///CB,0.00,WUHU216DAVISVP2,2013-10-30 16:17:00,
2013-10-30 12:22:00,60.1,51.7,30.20,East,87,0.0,4.0,73,0.00,,OVC OVC///CB,0.00,WUHU216DAVISVP2,2013-10-30 16:22:00,
2013-10-30 12:27:00,61.0,51.8,30.20,South,172,0.0,2.0,71,0.00,,OVC OVC///CB,0.00,WUHU216DAVISVP2,2013-10-30 16:27:00,
2013-10-30 12:32:00,61.4,51.8,30.20,SSW,193,0.0,2.0,70,0.00,,OVC OVC///CB,0.00,WUHU216DAVISVP2,2013-10-30 16:32:00,
2013-10-30 12:37:00,61.6,52.0,30.19,WSW,243,1.0,2.0,70,0.00,,OVC OVC///CB,0.00,WUHU216DAVISVP2,2013-10-30 16:37:00,
2013-10-30 12:42:00,61.0,51.1,30.19,West,274,1.0,3.0,69,0.00,,OVC OVC///CB,0.00,WUHU216DAVISVP2,2013-10-30 16:42:00,
2013-10-30 12:47:00,60.8,51.2,30.19,WSW,246,1.0,3.0,70,0.00,,OVC OVC///CB,0.00,WUHU216DAVISVP2,2013-10-30 16:47:00,
2013-10-30 12:52:00,60.9,51.0,30.18,SSW,208,0.0,3.0,69,0.00,,OVC OVC///CB,0.00,WUHU216DAVISVP2,2013-10-30 16:52:00,
2013-10-30 12:57:00,61.1,51.2,30.18,East,90,3.0,3.0,69,0.00,,OVC OVC///CB,0.00,WUHU216DAVISVP2,2013-10-30 16:57:00,
2013-10-30 13:02:00,61.1,51.2,30.18,SSW,210,0.0,3.0,69,0.00,,OVC OVC///CB,0.00,WUHU216DAVISVP2,2013-10-30 17:02:00,
2013-10-30 13:07:00,61.2,51.6,30.18,North,8,0.0,3.0,70,0.00,,OVC OVC///CB,0.00,WUHU216DAVISVP2,2013-10-30 17:07:00,
2013-10-30 13:12:00,61.8,52.2,30.18,South,187,2.0,4.0,70,0.00,,OVC OVC///CB,0.00,WUHU216DAVISVP2,2013-10-30 17:12:00,
2013-10-30 13:17:00,62.4,52.0,30.18,SW,220,2.0,5.0,68,0.00,,OVC OVC///CB,0.00,WUHU216DAVISVP2,2013-10-30 17:17:00,
2013-10-30 13:22:00,62.4,52.4,30.17,West,274,0.0,5.0,69,0.00,,OVC OVC///CB,0.00,WUHU216DAVISVP2,2013-10-30 17:22:00,
2013-10-30 13:27:00,62.6,52.6,30.17,WSW,240,1.0,5.0,69,0.00,,OVC OVC///CB,0.00,WUHU216DAVISVP2,2013-10-30 17:27:00,
2013-10-30 13:32:00,62.8,52.4,30.17,WSW,246,1.0,5.0,68,0.00,,OVC OVC///CB,0.00,WUHU216DAVISVP2,2013-10-30 17:32:00,
2013-10-30 13:37:00,62.5,52.1,30.17,SSW,204,0.0,5.0,68,0.00,,OVC OVC///CB,0.00,WUHU216DAVISVP2,2013-10-30 17:37:00,
2013-10-30 13:42:00,63.1,51.9,30.16,SW,225,0.0,5.0,66,0.00,,OVC OVC///CB,0.00,WUHU216DAVISVP2,2013-10-30 17:42:00,
2013-10-30 13:47:00,63.3,52.1,30.16,SSW,212,2.0,4.0,66,0.00,,OVC OVC///CB,0.00,WUHU216DAVISVP2,2013-10-30 17:47:00,
2013-10-30 13:52:00,63.3,52.5,30.16,South,173,1.0,5.0,67,0.00,,OVC OVC///CB,0.00,WUHU216DAVISVP2,2013-10-30 17:52:00,
2013-10-30 13:57:00,62.9,52.5,30.15,SW,221,0.0,5.0,68,0.00,,OVC OVC///CB,0.00,WUHU216DAVISVP2,2013-10-30 17:57:00,
2013-10-30 14:02:00,62.9,52.9,30.15,WSW,245,1.0,5.0,69,0.00,,OVC OVC///CB,0.00,WUHU216DAVISVP2,2013-10-30 18:02:00,
2013-10-30 14:07:00,63.4,53.0,30.14,SSE,163,1.0,5.0,68,0.00,,OVC OVC///CB,0.00,WUHU216DAVISVP2,2013-10-30 18:07:00,
2013-10-30 14:12:00,63.6,53.2,30.14,WSW,242,2.0,3.0,68,0.00,,OVC OVC///CB,0.00,WUHU216DAVISVP2,2013-10-30 18:12:00,
2013-10-30 14:17:00,63.6,52.8,30.14,WNW,302,2.0,5.0,67,0.00,,OVC OVC///CB,0.00,WUHU216DAVISVP2,2013-10-30 18:17:00,
2013-10-30 14:22:00,64.0,53.1,30.14,SSW,200,3.0,5.0,67,0.00,,OVC OVC///CB,0.00,WUHU216DAVISVP2,2013-10-30 18:22:00,
2013-10-30 14:27:00,63.9,52.6,30.14,SSW,204,0.0,6.0,66,0.00,,OVC OVC///CB,0.00,WUHU216DAVISVP2,2013-10-30 18:27:00,
2013-10-30 14:32:00,63.6,52.8,30.14,West,271,1.0,6.0,67,0.00,,OVC OVC///CB,0.00,WUHU216DAVISVP2,2013-10-30 18:32:00,
2013-10-30 14:37:00,63.6,53.2,30.14,WSW,250,2.0,6.0,68,0.00,,OVC OVC///CB,0.00,WUHU216DAVISVP2,2013-10-30 18:37:00,
2013-10-30 14:42:00,63.7,54.0,30.13,WSW,243,3.0,6.0,70,0.00,,OVC OVC///CB,0.00,WUHU216DAVISVP2,2013-10-30 18:42:00,
2013-10-30 14:47:00,64.1,53.6,30.13,SSE,163,2.0,4.0,68,0.00,,OVC OVC///CB,0.00,WUHU216DAVISVP2,2013-10-30 18:47:00,
2013-10-30 14:52:00,64.1,53.6,30.13,WSW,255,1.0,4.0,68,0.00,,OVC OVC///CB,0.00,WUHU216DAVISVP2,2013-10-30 18:52:00,
2013-10-30 14:57:00,63.5,53.5,30.13,WSW,256,0.0,4.0,69,0.00,,OVC OVC///CB,0.00,WUHU216DAVISVP2,2013-10-30 18:57:00,
2013-10-30 15:02:00,63.5,53.8,30.12,WSW,253,0.0,3.0,70,0.00,,OVC OVC///CB,0.00,WUHU216DAVISVP2,2013-10-30 19:02:00,
2013-10-30 15:07:00,63.4,53.7,30.12,SW,235,1.0,4.0,70,0.00,,OVC OVC///CB,0.00,WUHU216DAVISVP2,2013-10-30 19:07:00,
2013-10-30 15:12:00,64.1,54.0,30.12,West,274,2.0,4.0,69,0.00,,OVC OVC///CB,0.00,WUHU216DAVISVP2,2013-10-30 19:12:00,
2013-10-30 15:17:00,64.2,54.1,30.11,WSW,255,0.0,4.0,69,0.00,,OVC OVC///CB,0.00,WUHU216DAVISVP2,2013-10-30 19:17:00,
2013-10-30 15:22:00,64.3,54.2,30.11,South,170,0.0,4.0,69,0.00,,OVC OVC///CB,0.00,WUHU216DAVISVP2,2013-10-30 19:22:00,
2013-10-30 15:27:00,64.1,53.6,30.11,SSW,197,5.0,7.0,68,0.00,,OVC OVC///CB,0.00,WUHU216DAVISVP2,2013-10-30 19:27:00,
2013-10-30 15:32:00,64.1,54.0,30.11,SSE,162,0.0,7.0,69,0.00,,OVC OVC///CB,0.00,WUHU216DAVISVP2,2013-10-30 19:32:00,
2013-10-30 15:37:00,64.4,53.9,30.11,SSW,207,3.0,7.0,68,0.00,,OVC OVC///CB,0.00,WUHU216DAVISVP2,2013-10-30 19:37:00,
2013-10-30 15:42:00,64.3,54.6,30.11,SW,218,1.0,7.0,70,0.00,,OVC OVC///CB,0.00,WUHU216DAVISVP2,2013-10-30 19:42:00,
2013-10-30 15:47:00,64.0,54.3,30.11,West,262,0.0,7.0,70,0.00,,OVC OVC///CB,0.00,WUHU216DAVISVP2,2013-10-30 19:47:00,
2013-10-30 15:52:00,64.4,53.9,30.11,South,190,2.0,6.0,68,0.00,,OVC OVC///CB,0.00,WUHU216DAVISVP2,2013-10-30 19:52:00,
2013-10-30 15:57:00,64.1,54.4,30.11,SW,235,6.0,7.0,70,0.00,,OVC OVC///CB,0.00,WUHU216DAVISVP2,2013-10-30 19:57:00,
2013-10-30 16:02:00,64.0,54.3,30.11,SSW,204,4.0,7.0,70,0.00,,OVC OVC///CB,0.00,WUHU216DAVISVP2,2013-10-30 20:02:00,
2013-10-30 16:07:00,63.7,54.0,30.11,WSW,250,3.0,7.0,70,0.00,,OVC OVC///CB,0.00,WUHU216DAVISVP2,2013-10-30 20:07:00,
2013-10-30 16:12:00,63.6,53.9,30.11,SW,235,0.0,7.0,70,0.00,,OVC OVC///CB,0.00,WUHU216DAVISVP2,2013-10-30 20:12:00,
2013-10-30 16:17:00,64.0,54.3,30.11,SSW,193,3.0,7.0,70,0.00,,OVC OVC///CB,0.00,WUHU216DAVISVP2,2013-10-30 20:17:00,
2013-10-30 16:22:00,64.3,54.2,30.11,SSW,211,3.0,7.0,69,0.00,,OVC OVC///CB,0.00,WUHU216DAVISVP2,2013-10-30 20:22:00,
2013-10-30 16:27:00,64.2,53.7,30.10,SW,215,3.0,8.0,68,0.00,,OVC OVC///CB,0.00,WUHU216DAVISVP2,2013-10-30 20:27:00,
2013-10-30 16:32:00,64.3,54.6,30.11,SSW,207,1.0,8.0,70,0.00,,OVC OVC///CB,0.00,WUHU216DAVISVP2,2013-10-30 20:32:00,
2013-10-30 16:37:00,64.7,54.6,30.10,SSW,210,1.0,8.0,69,0.00,,OVC OVC///CB,0.00,WUHU216DAVISVP2,2013-10-30 20:37:00,
2013-10-30 16:42:00,64.6,54.1,30.10,SW,232,1.0,8.0,68,0.00,,OVC OVC///CB,0.00,WUHU216DAVISVP2,2013-10-30 20:42:00,
2013-10-30 16:47:00,64.8,54.3,30.11,SSW,210,1.0,7.0,68,0.00,,OVC OVC///CB,0.00,WUHU216DAVISVP2,2013-10-30 20:47:00,
2013-10-30 16:52:00,64.5,54.0,30.11,SSW,212,1.0,7.0,68,0.00,,OVC OVC///CB,0.00,WUHU216DAVISVP2,2013-10-30 20:52:00,
2013-10-30 16:57:00,64.1,53.6,30.11,SSW,206,2.0,7.0,68,0.00,,OVC OVC///CB,0.00,WUHU216DAVISVP2,2013-10-30 20:57:00,
2013-10-30 17:02:00,63.7,53.6,30.11,SW,221,1.0,6.0,69,0.00,,OVC OVC///CB,0.00,WUHU216DAVISVP2,2013-10-30 21:02:00,
2013-10-30 17:07:00,63.1,53.5,30.11,SSW,195,1.0,6.0,70,0.00,,OVC OVC///CB,0.00,WUHU216DAVISVP2,2013-10-30 21:07:00,
2013-10-30 17:12:00,62.7,53.8,30.11,SW,217,0.0,4.0,72,0.00,,OVC OVC///CB,0.00,WUHU216DAVISVP2,2013-10-30 21:12:00,
2013-10-30 17:17:00,62.4,53.5,30.11,SSW,208,1.0,4.0,72,0.00,,OVC OVC///CB,0.00,WUHU216DAVISVP2,2013-10-30 21:17:00,
2013-10-30 17:22:00,62.2,53.7,30.12,South,172,1.0,4.0,73,0.00,,OVC OVC///CB,0.00,WUHU216DAVISVP2,2013-10-30 21:22:00,
2013-10-30 17:27:00,62.1,53.6,30.12,SW,219,2.0,4.0,73,0.00,,OVC OVC///CB,0.00,WUHU216DAVISVP2,2013-10-30 21:27:00,
2013-10-30 17:32:00,61.9,53.8,30.11,SSW,199,0.0,4.0,74,0.00,,OVC OVC///CB,0.00,WUHU216DAVISVP2,2013-10-30 21:32:00,
2013-10-30 17:37:00,61.7,53.6,30.11,SSW,204,0.0,5.0,74,0.00,,OVC OVC///CB,0.00,WUHU216DAVISVP2,2013-10-30 21:37:00,
2013-10-30 17:42:00,61.5,53.8,30.11,SW,226,0.0,5.0,75,0.00,,OVC OVC///CB,0.00,WUHU216DAVISVP2,2013-10-30 21:42:00,
2013-10-30 17:47:00,61.3,53.6,30.11,SSW,205,0.0,4.0,75,0.00,,OVC OVC///CB,0.00,WUHU216DAVISVP2,2013-10-30 21:47:00,
2013-10-30 17:52:00,61.1,53.7,30.11,SSW,198,0.0,4.0,76,0.00,,OVC OVC///CB,0.00,WUHU216DAVISVP2,2013-10-30 21:52:00,
2013-10-30 17:57:00,60.9,53.5,30.11,SSW,210,1.0,4.0,76,0.00,,OVC OVC///CB,0.00,WUHU216DAVISVP2,2013-10-30 21:57:00,
2013-10-30 18:02:00,60.7,53.7,30.11,SSW,211,1.0,4.0,77,0.00,,OVC OVC///CB,0.00,WUHU216DAVISVP2,2013-10-30 22:02:00,
2013-10-30 18:07:00,60.6,53.6,30.11,SSW,208,1.0,4.0,77,0.00,,OVC OVC///CB,0.00,WUHU216DAVISVP2,2013-10-30 22:07:00,
2013-10-30 18:12:00,60.5,53.8,30.11,SSE,160,2.0,4.0,78,0.00,,OVC OVC///CB,0.00,WUHU216DAVISVP2,2013-10-30 22:12:00,
2013-10-30 18:17:00,60.5,53.8,30.11,SSW,199,0.0,4.0,78,0.00,,OVC OVC///CB,0.00,WUHU216DAVISVP2,2013-10-30 22:17:00,
2013-10-30 18:22:00,60.4,53.7,30.11,SSW,199,0.0,4.0,78,0.00,,OVC OVC///CB,0.00,WUHU216DAVISVP2,2013-10-30 22:22:00,
2013-10-30 18:27:00,60.3,53.6,30.12,SW,229,0.0,5.0,78,0.00,,OVC OVC///CB,0.00,WUHU216DAVISVP2,2013-10-30 22:27:00,
2013-10-30 18:32:00,60.3,53.6,30.12,SW,217,0.0,5.0,78,0.00,,OVC OVC///CB,0.00,WUHU216DAVISVP2,2013-10-30 22:32:00,
2013-10-30 18:37:00,60.3,53.6,30.13,SSW,210,0.0,5.0,78,0.00,,OVC OVC///CB,0.00,WUHU216DAVISVP2,2013-10-30 22:37:00,
2013-10-30 18:42:00,60.1,53.4,30.12,SSW,211,0.0,5.0,78,0.00,,OVC OVC///CB,0.00,WUHU216DAVISVP2,2013-10-30 22:42:00,
2013-10-30 18:47:00,60.0,53.7,30.12,SSW,210,0.0,2.0,79,0.00,,OVC OVC///CB,0.00,WUHU216DAVISVP2,2013-10-30 22:47:00,
2013-10-30 18:52:00,59.7,53.4,30.11,SSW,211,0.0,2.0,79,0.00,,OVC OVC///CB,0.00,WUHU216DAVISVP2,2013-10-30 22:52:00,
2013-10-30 18:57:00,59.4,53.4,30.11,SSW,195,1.0,1.0,80,0.00,,OVC OVC///CB,0.00,WUHU216DAVISVP2,2013-10-30 22:57:00,
2013-10-30 19:02:00,59.1,53.1,30.11,SSW,199,0.0,3.0,80,0.00,,OVC OVC///CB,0.00,WUHU216DAVISVP2,2013-10-30 23:02:00,
2013-10-30 19:07:00,58.9,53.3,30.12,SW,227,4.0,4.0,81,0.00,,OVC OVC///CB,0.00,WUHU216DAVISVP2,2013-10-30 23:07:00,
2013-10-30 19:12:00,58.8,53.2,30.11,South,172,0.0,4.0,81,0.00,,OVC OVC///CB,0.00,WUHU216DAVISVP2,2013-10-30 23:12:00,
2013-10-30 19:17:00,58.4,53.1,30.11,South,172,0.0,4.0,82,0.00,,OVC OVC///CB,0.00,WUHU216DAVISVP2,2013-10-30 23:17:00,
2013-10-30 19:22:00,58.1,53.1,30.11,South,172,0.0,4.0,83,0.00,,OVC OVC///CB,0.00,WUHU216DAVISVP2,2013-10-30 23:22:00,
2013-10-30 19:27:00,57.8,52.8,30.11,SSW,199,0.0,3.0,83,0.00,,OVC OVC///CB,0.00,WUHU216DAVISVP2,2013-10-30 23:27:00,
2013-10-30 19:32:00,57.7,53.0,30.11,SSW,193,0.0,1.0,84,0.00,,OVC OVC///CB,0.00,WUHU216DAVISVP2,2013-10-30 23:32:00,
2013-10-30 19:37:00,57.7,53.0,30.11,SSW,195,0.0,1.0,84,0.00,,OVC OVC///CB,0.00,WUHU216DAVISVP2,2013-10-30 23:37:00,
2013-10-30 19:42:00,57.6,53.3,30.11,SSW,207,0.0,3.0,85,0.00,,OVC OVC///CB,0.00,WUHU216DAVISVP2,2013-10-30 23:42:00,
2013-10-30 19:47:00,57.5,53.2,30.12,South,186,1.0,3.0,85,0.00,,OVC OVC///CB,0.00,WUHU216DAVISVP2,2013-10-30 23:47:00,
2013-10-30 19:52:00,57.4,53.1,30.12,SSW,205,0.0,3.0,85,0.00,,OVC OVC///CB,0.00,WUHU216DAVISVP2,2013-10-30 23:52:00,
2013-10-30 19:57:00,57.2,53.2,30.12,SW,214,0.0,3.0,86,0.00,,OVC OVC///CB,0.00,WUHU216DAVISVP2,2013-10-30 23:57:00,
2013-10-30 20:02:00,57.0,53.0,30.11,SSW,212,0.0,2.0,86,0.00,,OVC OVC///CB,0.00,WUHU216DAVISVP2,2013-10-31 00:02:00,
2013-10-30 20:07:00,56.7,53.0,30.11,SSW,212,0.0,2.0,87,0.00,,OVC OVC///CB,0.00,WUHU216DAVISVP2,2013-10-31 00:07:00,
2013-10-30 20:12:00,56.3,52.6,30.12,SSW,212,0.0,2.0,87,0.00,,OVC OVC///CB,0.00,WUHU216DAVISVP2,2013-10-31 00:12:00,
2013-10-30 20:17:00,56.1,52.7,30.12,SSW,212,0.0,0.0,88,0.00,,OVC OVC///CB,0.00,WUHU216DAVISVP2,2013-10-31 00:17:00,
2013-10-30 20:22:00,55.8,52.7,30.12,SSW,212,0.0,0.0,89,0.00,,OVC OVC///CB,0.00,WUHU216DAVISVP2,2013-10-31 00:22:00,
2013-10-30 20:27:00,55.5,52.4,30.12,SSW,212,0.0,0.0,89,0.00,,OVC OVC///CB,0.00,WUHU216DAVISVP2,2013-10-31 00:27:00,
2013-10-30 20:32:00,55.3,52.5,30.12,South,172,0.0,0.0,90,0.00,,OVC OVC///CB,0.00,WUHU216DAVISVP2,2013-10-31 00:32:00,
2013-10-30 20:37:00,55.3,52.5,30.12,SSW,193,0.0,0.0,90,0.00,,OVC OVC///CB,0.00,WUHU216DAVISVP2,2013-10-31 00:37:00,
2013-10-30 20:42:00,55.5,52.7,30.13,SSW,203,0.0,3.0,90,0.00,,OVC OVC///CB,0.00,WUHU216DAVISVP2,2013-10-31 00:42:00,
2013-10-30 20:47:00,55.4,52.3,30.12,SSW,203,0.0,3.0,89,0.00,,OVC OVC///CB,0.00,WUHU216DAVISVP2,2013-10-31 00:47:00,
2013-10-30 20:52:00,55.2,52.4,30.12,SSW,202,0.0,2.0,90,0.00,,OVC OVC///CB,0.00,WUHU216DAVISVP2,2013-10-31 00:52:00,
2013-10-30 20:57:00,55.1,52.6,30.12,SSW,203,0.0,1.0,91,0.00,,OVC OVC///CB,0.00,WUHU216DAVISVP2,2013-10-31 00:57:00,
2013-10-30 21:02:00,55.1,52.6,30.12,SSW,203,0.0,0.0,91,0.00,,OVC OVC///CB,0.00,WUHU216DAVISVP2,2013-10-31 01:02:00,
2013-10-30 21:07:00,55.3,52.8,30.12,SW,222,0.0,2.0,91,0.00,,OVC OVC///CB,0.00,WUHU216DAVISVP2,2013-10-31 01:07:00,
2013-10-30 21:12:00,55.6,53.1,30.12,SW,214,0.0,2.0,91,0.00,,OVC OVC///CB,0.00,WUHU216DAVISVP2,2013-10-31 01:12:00,
2013-10-30 21:17:00,55.8,53.0,30.12,SSW,203,0.0,2.0,90,0.00,,OVC OVC///CB,0.00,WUHU216DAVISVP2,2013-10-31 01:17:00,
2013-10-30 21:22:00,55.9,53.1,30.12,SW,217,0.0,4.0,90,0.00,,OVC OVC///CB,0.00,WUHU216DAVISVP2,2013-10-31 01:22:00,
2013-10-30 21:27:00,56.0,53.2,30.12,SSE,166,0.0,4.0,90,0.00,,OVC OVC///CB,0.00,WUHU216DAVISVP2,2013-10-31 01:27:00,
2013-10-30 21:32:00,56.0,53.2,30.12,SSW,205,0.0,4.0,90,0.00,,OVC OVC///CB,0.00,WUHU216DAVISVP2,2013-10-31 01:32:00,
2013-10-30 21:37:00,56.0,53.5,30.11,SSW,207,0.0,4.0,91,0.00,,OVC OVC///CB,0.00,WUHU216DAVISVP2,2013-10-31 01:37:00,
2013-10-30 21:42:00,56.1,53.6,30.11,SSW,198,0.0,2.0,91,0.00,,OVC OVC///CB,0.00,WUHU216DAVISVP2,2013-10-31 01:42:00,
2013-10-30 21:47:00,56.1,53.6,30.11,SSW,212,0.0,2.0,91,0.00,,OVC OVC///CB,0.00,WUHU216DAVISVP2,2013-10-31 01:47:00,
2013-10-30 21:52:00,56.2,53.7,30.11,South,186,1.0,2.0,91,0.00,,OVC OVC///CB,0.00,WUHU216DAVISVP2,2013-10-31 01:52:00,
2013-10-30 21:57:00,56.3,54.1,30.11,SSW,197,0.0,4.0,92,0.00,,OVC OVC///CB,0.00,WUHU216DAVISVP2,2013-10-31 01:57:00,
2013-10-30 22:02:00,56.3,54.1,30.11,SSW,204,0.0,4.0,92,0.00,,OVC OVC///CB,0.00,WUHU216DAVISVP2,2013-10-31 02:02:00,
2013-10-30 22:07:00,56.3,54.1,30.10,SSW,203,0.0,4.0,92,0.00,,OVC OVC///CB,0.00,WUHU216DAVISVP2,2013-10-31 02:07:00,
2013-10-30 22:12:00,56.3,54.1,30.10,SSW,203,0.0,4.0,92,0.00,,OVC OVC///CB,0.00,WUHU216DAVISVP2,2013-10-31 02:12:00,
2013-10-30 22:17:00,56.2,54.0,30.10,SSW,209,0.0,2.0,92,0.00,,OVC OVC///CB,0.00,WUHU216DAVISVP2,2013-10-31 02:17:00,
2013-10-30 22:22:00,56.2,54.3,30.10,SW,219,0.0,2.0,93,0.00,,OVC OVC///CB,0.00,WUHU216DAVISVP2,2013-10-31 02:22:00,
2013-10-30 22:27:00,56.2,54.3,30.10,WSW,240,0.0,2.0,93,0.00,,OVC OVC///CB,0.00,WUHU216DAVISVP2,2013-10-31 02:27:00,
2013-10-30 22:32:00,56.3,54.4,30.10,SSW,207,0.0,2.0,93,0.00,,OVC OVC///CB,0.00,WUHU216DAVISVP2,2013-10-31 02:32:00,
2013-10-30 22:37:00,56.3,54.4,30.09,SSW,207,0.0,2.0,93,0.00,,OVC OVC///CB,0.00,WUHU216DAVISVP2,2013-10-31 02:37:00,
2013-10-30 22:42:00,56.3,54.4,30.09,SW,226,0.0,1.0,93,0.00,,OVC OVC///CB,0.00,WUHU216DAVISVP2,2013-10-31 02:42:00,
2013-10-30 22:47:00,56.4,54.5,30.09,SW,217,0.0,2.0,93,0.00,,OVC OVC///CB,0.00,WUHU216DAVISVP2,2013-10-31 02:47:00,
2013-10-30 22:52:00,56.4,54.8,30.09,SW,222,0.0,4.0,94,0.00,,OVC OVC///CB,0.00,WUHU216DAVISVP2,2013-10-31 02:52:00,
2013-10-30 22:57:00,56.5,54.9,30.09,South,174,0.0,4.0,94,0.00,,OVC OVC///CB,0.00,WUHU216DAVISVP2,2013-10-31 02:57:00,
2013-10-30 23:00:00,56.5,54.9,30.09,SSW,207,1.0,4.0,94,0.00,,OVC OVC///CB,0.00,WUHU216DAVISVP2,2013-10-31 03:00:00,
2013-10-30 23:05:00,56.6,55.0,30.08,SSW,200,1.0,5.0,94,0.00,,OVC OVC///CB,0.00,WUHU216DAVISVP2,2013-10-31 03:05:00,
2013-10-30 23:10:00,56.6,55.0,30.08,SW,215,0.0,5.0,94,0.00,,OVC OVC///CB,0.00,WUHU216DAVISVP2,2013-10-31 03:10:00,
2013-10-30 23:15:00,56.7,55.4,30.08,SSW,201,0.0,4.0,95,0.00,,OVC OVC///CB,0.00,WUHU216DAVISVP2,2013-10-31 03:15:00,
2013-10-30 23:20:00,56.8,55.5,30.08,SSW,203,0.0,5.0,95,0.00,,OVC OVC///CB,0.00,WUHU216DAVISVP2,2013-10-31 03:20:00,
2013-10-30 23:25:00,56.8,55.5,30.08,SSW,210,0.0,5.0,95,0.00,,OVC OVC///CB,0.00,WUHU216DAVISVP2,2013-10-31 03:25:00,
2013-10-30 23:30:00,56.8,55.5,30.07,SSW,193,0.0,5.0,95,0.00,,OVC OVC///CB,0.00,WUHU216DAVISVP2,2013-10-31 03:30:00,
2013-10-30 23:35:00,56.9,55.6,30.07,SSW,194,1.0,4.0,95,0.00,,OVC OVC///CB,0.00,WUHU216DAVISVP2,2013-10-31 03:35:00,
2013-10-30 23:40:00,56.9,55.6,30.07,SSW,205,0.0,4.0,95,0.00,,OVC OVC///CB,0.00,WUHU216DAVISVP2,2013-10-31 03:40:00,
2013-10-30 23:45:00,57.0,55.7,30.06,WSW,237,0.0,4.0,95,0.00,,OVC OVC///CB,0.00,WUHU216DAVISVP2,2013-10-31 03:45:00,
2013-10-30 23:50:00,57.0,55.7,30.06,SSW,198,1.0,4.0,95,0.00,,OVC OVC///CB,0.00,WUHU216DAVISVP2,2013-10-31 03:50:00,
2013-10-30 23:55:00,57.1,56.1,30.06,SSE,163,0.0,4.0,96,0.00,,OVC OVC///CB,0.00,WUHU216DAVISVP2,2013-10-31 03:55:00,